CAPE
433 113 15 0 0 0 0 0 0 0 0 0 0 0 0 0 0 0 21 66 156 182 175 163 128 88 283 308 189 285 429 562 112
142 74 3 0 0 0 0 0 0 0 0 0 0 0 0 0 0 0 0 64 80 71 60 58 40 19 61 66 232 274 328 569 289
92 63 24 0 0 0 1 0 0 0 0 0 0 0 0 0 0 0 0 65 22 0 6 0 0 0 4 2 23 69 83 211 389
68 63 44 13 2 1 0 0 0 0 0 0 0 0 0 0 0 0 0 9 8 12 3 3 1 1 2 3 0 0 16 6 16
62 70 70 42 50 43 3 0 0 0 0 0 0 0 0 0 0 0 0 0 126 30 8 6 4 2 1 2 1 0 6 2 3
32 18 31 96 154 72 8 0 0 0 0 0 0 0 0 0 0 0 0 13 168 29 9 2 1 1 1 2 2 4 5 3 4
18 15 37 107 167 95 23 3 0 0 0 0 0 0 0 0 0 0 0 236 215 34 0 0 0 0 0 2 1 3 4 6 5
13 15 51 63 96 78 30 6 0 0 0 0 0 0 0 0 0 12 156 407 144 30 1 0 0 0 0 1 1 3 2 2 2
0 4 18 49 82 89 40 22 1 0 0 0 0 0 0 0 0 63 226 325 154 46 2 0 0 0 0 1 1 1 0 1 2
0 0 0 18 61 69 41 22 20 10 0 0 0 0 0 0 0 49 151 145 176 80 0 0 0 0 0 0 1 2 0 1 2
0 0 0 0 13 20 27 17 6 10 1 0 0 0 0 0 0 11 67 62 140 100 1 1 2 0 0 0 0 2 2 0 2
17 0 0 0 11 14 16 0 0 0 9 7 0 1 0 0 0 0 17 45 42 79 18 10 3 0 0 0 0 4 4 0 0
19 41 28 0 0 0 18 28 4 0 0 19 1 0 3 1 0 0 1 21 22 5 87 94 9 7 0 0 0 0 6 0 0
103 99 69 17 7 0 0 23 36 17 4 26 59 31 15 3 0 0 0 0 7 0 0 17 29 18 0 0 0 0 0 0 0
99 146 155 96 112 125 59 19 30 24 76 73 70 80 16 11 0 0 4 3 0 0 0 0 0 0 14 0 0 0 0 0 0
242 238 215 178 94 114 155 152 131 124 119 131 98 95 56 0 11 25 22 57 49 2 0 7 18 8 0 10 0 0 0 2 1
309 244 173 155 115 104 128 183 166 157 152 111 101 26 0 0 21 35 46 27 53 17 17 29 40 51 42 33 0 3 0 0 0
425 319 283 166 141 117 126 167 202 179 130 171 98 34 2 0 0 1 0 3 18 17 28 30 36 40 31 39 21 5 20 0 0
19 109 183 225 223 150 101 67 64 120 146 165 226 123 87 55 6 0 1 6 43 33 38 32 28 21 22 31 67 21 25 6 0
0 0 0 0 153 213 76 52 53 77 132 44 95 142 119 113 35 31 2 24 53 42 38 27 31 21 38 55 50 53 9 3 0
CIN
-13 -64 -36 0 0 0 0 0 0 0 0 0 0 0 0 0 0 0 -61 -49 -21 -8 -19 -27 -37 -49 -13 -18 -31 -8 -3 0 -86
-93 -76 0 0 0 0 0 0 0 0 0 0 0 0 0 0 0 0 0 -52 -48 -53 -59 -67 -93 -75 -59 -52 -8 -2 0 0 -1
-93 -114 -133 0 0 0 0 0 0 0 0 0 0 0 0 0 0 0 0 -61 -40 0 0 0 0 0 -1 -1 -75 -40 -24 -11 0
-152 -163 -168 -148 0 0 0 0 0 0 0 0 0 0 0 0 0 0 0 -31 0 -1 0 0 0 0 0 0 0 0 -31 -2 -13
-205 -187 -178 -191 -180 -170 -85 0 0 0 0 0 0 0 0 0 0 0 0 0 -78 -49 -2 0 0 0 0 0 0 0 0 0 0
-284 -300 -262 -169 -113 -177 -298 0 0 0 0 0 0 0 0 0 0 0 0 -49 -69 -51 0 0 0 0 0 0 0 0 0 0 0
-339 -360 -281 -159 -113 -180 -305 -220 0 0 0 0 0 0 0 0 0 0 0 -35 -44 -51 0 0 0 0 0 0 0 0 0 0 0
-375 -382 -266 -233 -174 -200 -291 -405 0 0 0 0 0 0 0 0 0 -242 -86 -18 -73 -137 0 0 0 0 0 0 0 0 0 0 0
0 -385 -346 -266 -205 -201 -282 -284 -39 0 0 0 0 0 0 0 0 -190 -39 -15 -69 -133 0 0 0 0 0 0 0 0 0 0 0
0 0 0 -307 -207 -207 -248 -274 -258 -285 -41 0 0 0 0 0 0 -225 -67 -63 -50 -116 0 0 0 0 0 0 0 0 0 0 0
0 0 0 0 -200 -276 -238 -262 -272 -242 -86 0 0 0 0 0 0 -330 -145 -128 -59 -76 -25 0 0 0 0 0 0 0 0 0 0
-134 0 0 0 -161 -133 -119 0 0 0 -163 -171 0 -85 0 0 0 -15 -230 -159 -145 -75 -134 -133 0 0 0 0 0 0 0 0 0
-101 -109 -124 0 0 0 -77 -63 -12 0 0 -98 -12 0 -118 -27 0 0 -187 -200 -169 -200 -62 -55 -100 0 0 0 0 0 0 0 0
-48 -57 -82 -29 -16 0 0 -48 -32 -54 -18 -42 -35 -42 -62 -30 0 0 0 0 -189 0 0 -69 -93 -103 0 0 0 0 0 0 0
-26 -25 -27 -12 -4 -7 -21 -24 -21 -21 -35 -24 -20 -10 -50 -49 0 0 -52 -75 0 0 0 0 0 0 0 0 0 0 0 0 0
-3 -1 -5 -1 -2 -4 -2 0 -1 -8 -11 -1 -13 -16 -7 0 -79 -68 -69 -58 -64 -19 0 -32 -19 -27 -2 -1 0 0 0 0 0
-24 -16 -6 -6 -9 -8 -3 -1 -3 -3 -4 -8 -10 -7 0 0 -59 -56 -52 -72 -57 -54 -22 -22 -22 -15 -14 -19 0 -25 0 0 0
-11 -21 -14 -18 -17 -16 -13 -4 -2 -3 -5 -3 -3 0 -1 0 0 -13 -6 -16 -30 -34 -24 -20 -17 -20 -13 -4 -2 -14 -8 0 0
-9 -34 -24 -22 -18 -18 -21 -33 -22 -9 -4 -1 0 0 0 0 0 0 -3 -49 -15 -17 -30 -25 -18 -21 -17 -5 -6 -11 0 0 0
0 0 0 0 -9 -12 -21 -20 -22 -8 -4 0 0 -4 0 0 -1 0 -1 -19 -28 -21 -7 -8 -14 -16 -3 0 0 -1 0 0 0
Wind_Speed
31 31 nan nan nan nan nan nan nan nan nan nan nan nan nan nan nan nan nan nan 27 31 29 29 30 nan 32 33 26 27 28 26 27
30 nan nan nan nan nan nan nan nan nan nan nan nan nan nan nan nan nan nan nan nan nan nan nan nan nan nan nan 28 28 29 31 30
nan nan nan nan nan nan nan nan nan nan nan nan nan nan nan nan nan nan nan nan nan nan nan nan nan nan nan nan nan nan nan 30 31
nan nan nan nan nan nan nan nan nan nan nan nan nan nan nan nan nan nan nan nan nan nan nan nan nan nan nan nan nan nan nan nan nan
nan nan nan nan nan nan nan nan nan nan nan nan nan nan nan nan nan nan nan nan 31 nan nan nan nan nan nan nan nan nan nan nan nan
nan nan nan nan 24 nan nan nan nan nan nan nan nan nan nan nan nan nan nan nan 35 nan nan nan nan nan nan nan nan nan nan nan nan
nan nan nan 24 25 nan nan nan nan nan nan nan nan nan nan nan nan nan nan 26 33 nan nan nan nan nan nan nan nan nan nan nan nan
nan nan nan nan nan nan nan nan nan nan nan nan nan nan nan nan nan nan 25 28 31 nan nan nan nan nan nan nan nan nan nan nan nan
nan nan nan nan nan nan nan nan nan nan nan nan nan nan nan nan nan nan 30 32 33 nan nan nan nan nan nan nan nan nan nan nan nan
nan nan nan nan nan nan nan nan nan nan nan nan nan nan nan nan nan nan 28 31 34 nan nan nan nan nan nan nan nan nan nan nan nan
nan nan nan nan nan nan nan nan nan nan nan nan nan nan nan nan nan nan nan nan 35 36 nan nan nan nan nan nan nan nan nan nan nan
nan nan nan nan nan nan nan nan nan nan nan nan nan nan nan nan nan nan nan nan nan nan nan nan nan nan nan nan nan nan nan nan nan
nan nan nan nan nan nan nan nan nan nan nan nan nan nan nan nan nan nan nan nan nan nan nan nan nan nan nan nan nan nan nan nan nan
30 nan nan nan nan nan nan nan nan nan nan nan nan nan nan nan nan nan nan nan nan nan nan nan nan nan nan nan nan nan nan nan nan
nan 32 32 nan 35 34 nan nan nan nan nan nan nan nan nan nan nan nan nan nan nan nan nan nan nan nan nan nan nan nan nan nan nan
35 34 36 39 nan 36 39 42 42 42 46 46 nan nan nan nan nan nan nan nan nan nan nan nan nan nan nan nan nan nan nan nan nan
36 36 36 39 39 41 43 47 46 45 49 48 48 nan nan nan nan nan nan nan nan nan nan nan nan nan nan nan nan nan nan nan nan
37 36 38 38 42 42 44 47 47 43 49 50 nan nan nan nan nan nan nan nan nan nan nan nan nan nan nan nan nan nan nan nan nan
nan 37 38 42 46 46 45 nan nan 49 46 50 45 48 nan nan nan nan nan nan nan nan nan nan nan nan nan nan nan nan nan nan nan
nan nan nan nan 49 49 nan nan nan nan 44 nan nan 49 53 52 nan nan nan nan nan nan nan nan nan nan nan nan nan nan nan nan nan
Wind_Direction
306 305 nan nan nan nan nan nan nan nan nan nan nan nan nan nan nan nan nan nan 290 287 286 284 275 nan 268 284 288 285 273 280 308
302 nan nan nan nan nan nan nan nan nan nan nan nan nan nan nan nan nan nan nan nan nan nan nan nan nan nan nan 269 269 269 270 289
nan nan nan nan nan nan nan nan nan nan nan nan nan nan nan nan nan nan nan nan nan nan nan nan nan nan nan nan nan nan nan 282 284
nan nan nan nan nan nan nan nan nan nan nan nan nan nan nan nan nan nan nan nan nan nan nan nan nan nan nan nan nan nan nan nan nan
nan nan nan nan nan nan nan nan nan nan nan nan nan nan nan nan nan nan nan nan 302 nan nan nan nan nan nan nan nan nan nan nan nan
nan nan nan nan 310 nan nan nan nan nan nan nan nan nan nan nan nan nan nan nan 309 nan nan nan nan nan nan nan nan nan nan nan nan
nan nan nan 315 316 nan nan nan nan nan nan nan nan nan nan nan nan nan nan 315 307 nan nan nan nan nan nan nan nan nan nan nan nan
nan nan nan nan nan nan nan nan nan nan nan nan nan nan nan nan nan nan 314 316 304 nan nan nan nan nan nan nan nan nan nan nan nan
nan nan nan nan nan nan nan nan nan nan nan nan nan nan nan nan nan nan 312 312 311 nan nan nan nan nan nan nan nan nan nan nan nan
nan nan nan nan nan nan nan nan nan nan nan nan nan nan nan nan nan nan 305 309 307 nan nan nan nan nan nan nan nan nan nan nan nan
nan nan nan nan nan nan nan nan nan nan nan nan nan nan nan nan nan nan nan nan 306 309 nan nan nan nan nan nan nan nan nan nan nan
nan nan nan nan nan nan nan nan nan nan nan nan nan nan nan nan nan nan nan nan nan nan nan nan nan nan nan nan nan nan nan nan nan
nan nan nan nan nan nan nan nan nan nan nan nan nan nan nan nan nan nan nan nan nan nan nan nan nan nan nan nan nan nan nan nan nan
295 nan nan nan nan nan nan nan nan nan nan nan nan nan nan nan nan nan nan nan nan nan nan nan nan nan nan nan nan nan nan nan nan
nan 290 290 nan 293 295 nan nan nan nan nan nan nan nan nan nan nan nan nan nan nan nan nan nan nan nan nan nan nan nan nan nan nan
288 290 290 291 nan 297 297 295 299 297 295 291 nan nan nan nan nan nan nan nan nan nan nan nan nan nan nan nan nan nan nan nan nan
286 288 286 289 291 293 296 298 294 294 297 298 293 nan nan nan nan nan nan nan nan nan nan nan nan nan nan nan nan nan nan nan nan
285 284 284 286 288 289 293 294 299 299 295 299 nan nan nan nan nan nan nan nan nan nan nan nan nan nan nan nan nan nan nan nan nan
nan 284 287 289 288 289 293 nan nan 296 299 293 297 295 nan nan nan nan nan nan nan nan nan nan nan nan nan nan nan nan nan nan nan
nan nan nan nan 289 292 nan nan nan nan 299 nan nan 298 295 294 nan nan nan nan nan nan nan nan nan nan nan nan nan nan nan nan nan